#timestamp,LO_Frequency,Hit,Temp,Hum 
1477983615.5,286047038.2,N,0.0,0.0
1477983635.4,286047036.7,N,0.0,0.0
1477983655.2,286047037.7,N,0.0,0.0
1477983675.1,286047039.5,N,0.0,0.0
1477983676.0,286047039.5,N,0.0,0.0
1477983695.8,286047036.2,N,0.0,0.0
1477983715.6,286047035.1,N,0.0,0.0
1477983735.5,286047033.5,N,0.0,0.0
1477983755.3,286047035.5,N,0.0,0.0
1477983775.1,286047035.8,N,0.0,0.0
1477983795.9,286047034.0,N,0.0,0.0
1477983815.7,286047030.7,N,0.0,0.0
1477983835.5,286047032.5,N,0.0,0.0
1477983855.4,286047034.4,N,0.0,0.0
1477983875.2,286047034.5,N,0.0,0.0
1477983895.0,286047034.2,N,0.0,0.0
1477983895.9,286047034.2,N,0.0,0.0
1477983915.8,286047035.2,N,0.0,0.0
1477983935.6,286047036.0,N,0.0,0.0
1477983955.5,286047036.9,N,0.0,0.0
1477983975.3,286047039.3,N,0.0,0.0
1477983995.1,286047039.7,N,0.0,0.0
1477984015.9,286047038.8,N,0.0,0.0
1477984035.7,286047038.6,N,0.0,0.0
1477984055.5,286047041.2,N,0.0,0.0
1477984075.4,286047036.6,N,0.0,0.0
1477984095.2,286047033.6,N,0.0,0.0
1477984115.0,286047034.7,N,0.0,0.0
1477984115.9,286047034.7,N,0.0,0.0
1477984135.8,286047034.3,N,0.0,0.0
1477984155.6,286047034.8,N,0.0,0.0
1477984175.4,286047034.1,N,0.0,0.0
1477984195.3,286047032.5,N,0.0,0.0
1477984215.1,286047032.5,N,0.0,0.0
1477984235.8,286047033.0,N,0.0,0.0
1477984255.7,286047033.8,N,0.0,0.0
1477984275.5,286047035.9,N,0.0,0.0
1477984295.4,286047035.7,N,0.0,0.0
1477984315.2,286047037.7,N,0.0,0.0
1477984335.0,286047034.5,N,0.0,0.0
1477984335.9,286047034.5,N,0.0,0.0
1477984355.8,286047032.1,N,0.0,0.0
1477984375.6,286047034.8,N,0.0,0.0
1477984395.4,286047030.5,N,0.0,0.0
1477984415.3,286047031.4,N,0.0,0.0
1477984435.1,286047030.8,N,0.0,0.0
1477984455.8,286047031.3,N,0.0,0.0
1477984475.7,286047032.4,N,0.0,0.0
1477984495.5,286047033.1,N,0.0,0.0
1477984515.3,286047033.1,N,0.0,0.0
1477984535.2,286047032.9,N,0.0,0.0
1477984555.0,286047032.7,N,0.0,0.0
1477984555.9,286047032.7,N,0.0,0.0
1477984575.8,286047028.5,N,0.0,0.0
1477984595.6,286047033.0,N,0.0,0.0
1477984615.4,286047035.4,N,0.0,0.0
1477984635.3,286047037.9,N,0.0,0.0
1477984655.1,286047036.1,N,0.0,0.0
1477984656.0,286047036.1,N,0.0,0.0
1477984675.8,286047033.7,N,0.0,0.0
1477984695.7,286047031.7,N,0.0,0.0
1477984715.5,286047033.9,N,0.0,0.0
1477984735.3,286047034.0,N,0.0,0.0
1477984755.2,286047032.9,N,0.0,0.0
1477984775.0,286047030.1,N,0.0,0.0
1477984775.9,286047030.1,N,0.0,0.0
1477984795.7,286047032.3,N,0.0,0.0
1477984815.6,286047033.1,N,0.0,0.0
1477984835.4,286047029.0,N,0.0,0.0
1477984855.3,286047030.4,N,0.0,0.0
1477984875.1,286047028.6,N,0.0,0.0
1477984876.0,286047028.6,N,0.0,0.0
1477984895.8,286047031.3,N,0.0,0.0
1477984915.7,286047029.1,N,0.0,0.0
1477984935.5,286047032.9,N,0.0,0.0
1477984955.3,286047034.4,N,0.0,0.0
1477984975.2,286047034.3,N,0.0,0.0
1477984995.9,286047031.9,N,0.0,0.0
1477985015.7,286047034.7,N,0.0,0.0
1477985035.6,286047034.8,N,0.0,0.0
1477985055.4,286047033.6,N,0.0,0.0
1477985075.2,286047034.7,N,0.0,0.0
1477985095.1,286047034.4,N,0.0,0.0
1477985096.0,286047034.4,N,0.0,0.0
1477985115.8,286047034.2,N,0.0,0.0
1477985135.7,286047030.3,N,0.0,0.0
1477985155.5,286047030.1,N,0.0,0.0
1477985175.3,286047028.9,N,0.0,0.0
1477985195.2,286047031.6,N,0.0,0.0
1477985215.9,286047029.7,N,0.0,0.0
1477985235.7,286047028.9,N,0.0,0.0
1477985255.6,286047028.7,N,0.0,0.0
1477985275.4,286047033.1,N,0.0,0.0
1477985295.2,286047034.2,N,0.0,0.0
1477985315.1,286047034.7,N,0.0,0.0
1477985316.0,286047034.7,N,0.0,0.0
1477985335.8,286047030.3,N,0.0,0.0
1477985355.6,286047034.1,N,0.0,0.0
1477985375.5,286047032.2,N,0.0,0.0
1477985395.3,286047033.1,N,0.0,0.0
1477985415.1,286047033.6,N,0.0,0.0
1477985435.9,286047031.8,N,0.0,0.0
1477985455.7,286047034.6,N,0.0,0.0
1477985475.6,286047033.9,N,0.0,0.0
1477985495.4,286047032.4,N,0.0,0.0
1477985515.2,286047034.8,N,0.0,0.0
1477985535.1,286047027.7,N,0.0,0.0
1477985536.0,286047027.7,N,0.0,0.0
1477985555.8,286047030.8,N,0.0,0.0
1477985575.6,286047030.8,N,0.0,0.0
1477985595.5,286047032.9,N,0.0,0.0
1477985615.3,286047033.0,N,0.0,0.0
1477985635.1,286047032.6,N,0.0,0.0
1477985655.9,286047033.6,N,0.0,0.0
1477985675.7,286047033.9,N,0.0,0.0
1477985695.5,286047034.8,N,0.0,0.0
1477985715.4,286047031.7,N,0.0,0.0
1477985735.2,286047034.5,N,0.0,0.0
1477985755.0,286047033.6,N,0.0,0.0
1477985755.9,286047033.6,N,0.0,0.0
1477985775.8,286047034.6,N,0.0,0.0
1477985795.6,286047035.8,N,0.0,0.0
1477985815.5,286047035.2,N,0.0,0.0
1477985835.3,286047035.7,N,0.0,0.0
1477985855.1,286047033.9,N,0.0,0.0
1477985875.9,286047034.6,N,0.0,0.0
1477985895.7,286047034.4,N,0.0,0.0
1477985915.5,286047033.0,N,0.0,0.0
1477985935.4,286047030.6,N,0.0,0.0
1477985955.2,286047032.6,N,0.0,0.0
1477985975.0,286047032.8,N,0.0,0.0
1477985975.9,286047032.8,N,0.0,0.0
1477985995.8,286047029.7,N,0.0,0.0
1477986015.6,286047034.5,N,0.0,0.0
1477986035.4,286047035.4,N,0.0,0.0
1477986055.3,286047033.3,N,0.0,0.0
1477986075.1,286047032.7,N,0.0,0.0
1477986095.9,286047035.2,N,0.0,0.0
1477986115.7,286047031.8,N,0.0,0.0
1477986135.5,286047030.6,N,0.0,0.0
1477986155.4,286047030.3,N,0.0,0.0
1477986175.2,286047034.3,N,0.0,0.0
1477986195.0,286047032.5,N,0.0,0.0
1477986195.9,286047032.5,N,0.0,0.0
1477986215.8,286047033.1,N,0.0,0.0
1477986235.6,286047030.6,N,0.0,0.0
1477986255.4,286047031.2,N,0.0,0.0
1477986275.3,286047029.7,N,0.0,0.0
1477986295.1,286047029.3,N,0.0,0.0
1477986315.8,286047029.8,N,0.0,0.0
1477986335.7,286047027.9,N,0.0,0.0
1477986355.5,286047028.5,N,0.0,0.0
1477986375.3,286047031.3,N,0.0,0.0
1477986395.2,286047032.4,N,0.0,0.0
1477986415.0,286047033.0,N,0.0,0.0
1477986415.9,286047033.0,N,0.0,0.0
1477986435.8,286047032.5,N,0.0,0.0
1477986455.6,286047032.5,N,0.0,0.0
1477986475.4,286047032.6,N,0.0,0.0
1477986495.3,286047033.0,N,0.0,0.0
1477986515.1,286047030.7,N,0.0,0.0
1477986516.0,286047030.7,N,0.0,0.0
1477986535.8,286047033.8,N,0.0,0.0
1477986555.7,286047030.7,N,0.0,0.0
1477986575.5,286047031.1,N,0.0,0.0
1477986595.3,286047031.0,N,0.0,0.0
1477986615.2,286047029.5,N,0.0,0.0
1477986635.0,286047031.5,N,0.0,0.0
1477986635.9,286047031.5,N,0.0,0.0
1477986655.8,286047029.2,N,0.0,0.0
1477986675.6,286047030.8,N,0.0,0.0
1477986695.4,286047032.9,N,0.0,0.0
1477986715.3,286047032.4,N,0.0,0.0
1477986735.1,286047032.5,N,0.0,0.0
1477986736.0,286047032.5,N,0.0,0.0
1477986755.8,286047032.8,N,0.0,0.0
1477986775.7,286047030.7,N,0.0,0.0
1477986795.5,286047031.2,N,0.0,0.0
1477986815.3,286047028.6,N,0.0,0.0
1477986835.2,286047031.5,N,0.0,0.0
1477986855.0,286047028.7,N,0.0,0.0
1477986855.9,286047028.7,N,0.0,0.0
1477986875.7,286047030.7,N,0.0,0.0
1477986895.6,286047028.9,N,0.0,0.0
1477986915.4,286047027.0,N,0.0,0.0
1477986935.3,286047028.6,N,0.0,0.0
1477986955.1,286047029.6,N,0.0,0.0
1477986956.0,286047029.6,N,0.0,0.0
1477986975.8,286047031.3,N,0.0,0.0
1477986995.7,286047031.1,N,0.0,0.0
1477987015.5,286047030.9,N,0.0,0.0
1477987035.3,286047030.9,N,0.0,0.0
1477987055.2,286047029.0,N,0.0,0.0
1477987075.9,286047024.5,N,0.0,0.0
1477987095.7,286047031.6,N,0.0,0.0
1477987115.6,286047031.1,N,0.0,0.0
1477987135.4,286047035.6,N,0.0,0.0
1477987155.2,286047029.0,N,0.0,0.0
1477987175.1,286047033.2,N,0.0,0.0
1477987176.0,286047033.2,N,0.0,0.0
1477987195.8,286047030.4,N,0.0,0.0
